Content
SEND FEEDBACK

Daily
Averages
Monthly
Summary
Switzerland

GENEVA, SWITZERLAND


Home > Europe > Switzerland
Elevation: 1364 feet     Latitude: 46 15N     Longitude: 006 08E

WEATHER
 
SELECT A DAY
Number of Records: 305,866;   Date Range: 7/1/96 - 8/12/14
 
SHARE

PRINT THIS DATA

[ ← Previous Day ]
WEATHER ALMANAC - FEBRUARY 19, 2013
[ Next Day → ]
[ °C ]   °F
Weather ElementAverageHighLow
Temperature31.2 °F42.8 °F (2:50 pm)23 °F (3:50 am)
Dewpoint24.7 °F28.4 °F (9:50 am)20 °F (7:00 am)
Humidity76.5 %93 % (12:50 am)41 % (5:00 pm)
Barometer30.06 in30.19 in (2:00 am)29.98 in (3:20 pm)
Wind Speed1.3 mph5.8 mph (5:00 pm)
Weather ElementAverage
Visibility4.8 mi
Wind DirectionENE (77 °)

Weather ElementTotal
Precipitation---
Heating Degree Days32.1 (Base 65)
Averaged from 61 records on February 19, 2013
WEATHER CONDITIONS BREAKOUT
WIND DIRECTION BREAKOUT
WEATHER BY HOUR - FEBRUARY 19, 2013
[ °C ]   °F
Local TimeTemperatureDewpointHumidityBarometerVisibilityWind DirectionWind SpeedGust SpeedPrecipitationEventsConditions
12:50 AM24.8 °F23.0 °F93 %30.09 inCalmClear
1:20 AM24.8 °F23.0 °F93 %30.09 inCalmClear
1:50 AM24.8 °F23.0 °F93 %30.09 inCalmClear
2:00 AM25.0 °F22.0 °F84 %30.19 inCalm
2:50 AM24.8 °F23.0 °F93 %30.09 inCalmClear
3:00 AM24.0 °F22.0 °F86 %30.19 inWest (280°)1.2 mph
3:20 AM24.8 °F23.0 °F93 %30.09 inNW (310°)1.2 mphClear
3:50 AM23.0 °F21.2 °F93 %30.09 in5.6 miCalm
4:20 AM23.0 °F21.2 °F93 %30.09 in5.6 miCalm
4:50 AM23.0 °F21.2 °F93 %30.09 in5.6 miWNW (290°)1.2 mph
5:20 AM23.0 °F21.2 °F93 %30.09 in5.6 miCalm
5:50 AM23.0 °F21.2 °F93 %30.09 in5.0 miWest (280°)1.2 mph
6:00 AM23.0 °F21.0 °F87 %30.19 inNW (310°)2.3 mph
6:20 AM23.0 °F21.2 °F93 %30.06 in4.3 miCalm
6:50 AM23.0 °F21.2 °F93 %30.06 in4.3 miCalm
7:00 AM23.0 °F20.0 °F86 %30.18 in4.0 miNW (310°)1.2 mphMist
7:20 AM23.0 °F21.2 °F93 %30.06 in3.1 miNW (310°)1.2 mphMist
7:50 AM23.0 °F21.2 °F93 %30.09 in3.1 miCalmMist
8:00 AM24.0 °F21.0 °F81 %30.19 inWNW (300°)1.2 mph
8:20 AM23.0 °F21.2 °F93 %30.09 in3.1 miWNW (290°)1.2 mphMist
8:50 AM24.8 °F23.0 °F93 %30.09 in3.7 miWSW (250°)1.2 mph
9:00 AM26.0 °F23.0 °F83 %30.18 inWest (260°)1.2 mph
9:20 AM28.4 °F24.8 °F86 %30.09 in3.1 miCalmMist
9:50 AM32.0 °F28.4 °F87 %30.09 in3.7 miCalm
10:20 AM32.0 °F26.6 °F80 %30.06 in3.7 miCalm
10:50 AM33.8 °F26.6 °F75 %30.06 in4.3 miCalm
11:00 AM34.0 °F27.0 °F66 %30.14 inNorth (350°)1.2 mph
11:20 AM35.6 °F28.4 °F75 %30.06 in5.0 miVariable1.2 mph
11:50 AM37.4 °F28.4 °F70 %30.06 in5.0 miVariable2.3 mph
12:00 PM36.0 °F26.0 °F56 %30.13 inESE (110°)2.3 mph
12:20 PM37.4 °F26.6 °F65 %30.06 in5.6 miVariable1.2 mph
12:50 PM39.2 °F26.6 °F61 %30.04 inCalmClear
1:00 PM37.0 °F25.0 °F50 %30.10 in7.0 miENE (60°)2.3 mphHaze
1:20 PM39.2 °F26.6 °F61 %30.04 inVariable3.5 mphClear
1:50 PM41.0 °F26.6 °F57 %30.04 inEast (80°)3.5 mphClear
2:00 PM39.0 °F26.0 °F48 %30.07 inENE (60°)3.5 mph
2:20 PM41.0 °F26.6 °F57 %30.01 inVariable2.3 mphClear
2:50 PM42.8 °F26.6 °F53 %30.01 inVariable1.2 mphClear
3:20 PM41.0 °F26.6 °F57 %29.98 inVariable1.2 mphClear
3:50 PM41.0 °F26.6 °F57 %29.98 inVariable2.3 mphClear
4:20 PM41.0 °F26.6 °F57 %29.98 inVariable2.3 mphClear
4:50 PM41.0 °F26.6 °F57 %29.98 inENE (70°)4.6 mphClear
5:00 PM40.0 °F25.0 °F41 %30.02 inENE (60°)5.8 mph
5:20 PM41.0 °F26.6 °F57 %29.98 inNE (50°)4.6 mphClear
5:50 PM39.2 °F26.6 °F61 %29.98 inNE (50°)3.5 mphClear
6:00 PM39.0 °F25.0 °F46 %30.02 inNNE (30°)3.5 mph
6:20 PM37.4 °F26.6 °F65 %29.98 inNNE (20°)1.2 mphClear
6:50 PM33.8 °F26.6 °F75 %29.98 inCalmClear
7:00 PM35.0 °F26.0 °F60 %30.04 in7.0 miNorth1.2 mphHaze
7:20 PM33.8 °F26.6 °F75 %29.98 inCalmClear
7:50 PM32.0 °F26.6 °F80 %29.98 inCalmClear
8:20 PM32.0 °F26.6 °F80 %29.98 inCalmClear
8:50 PM32.0 °F26.6 °F80 %29.98 inCalmClear
9:00 PM32.0 °F26.0 °F71 %30.06 inNNE (20°)1.2 mph
9:20 PM32.0 °F26.6 °F80 %29.98 in5.6 miCalmScattered Clouds
9:50 PM30.2 °F26.6 °F86 %29.98 in5.6 miVariable1.2 mphScattered Clouds
10:20 PM28.4 °F24.8 °F86 %30.01 in5.6 miVariable1.2 mph
10:50 PM28.4 °F26.6 °F93 %29.98 in5.0 miWSW (240°)1.2 mph
11:00 PM29.0 °F26.0 °F81 %30.07 inSW (230°)2.3 mph
11:20 PM28.4 °F26.6 °F93 %29.98 in5.0 miVariable1.2 mph
11:50 PM28.4 °F24.8 °F86 %29.98 in5.0 miCalm
Hourly data recorded from LSGG, located miles away from Geneva, Switzerland







STORIES FROM OUR PARTNERS